Location: Rancho Del Sol Observatory
(38.7214°N, 120.6350°W)
Time: 04:21:03
(UTC-08:00)

Envisat - Visible Passes

Search period start: 11 December 2019 00:00
Search period end: 21 December 2019 00:00
Orbit: 764 x 766 km, 98.1° (Epoch: 11 December)

Date Brightness Start Highest point End Pass type
(mag) Time Alt. Az. Time Alt. Az. Time Alt. Az.
11 Dec 5.1 06:07:39 10° NE 06:12:09 31° E 06:16:37 10° SSE visible
11 Dec 3.5 17:20:51 10° SE 17:25:26 36° ENE 17:30:04 10° N visible
11 Dec 5.2 19:00:26 10° SSW 19:04:30 24° W 19:08:37 10° NW visible
12 Dec 6.1 05:32:36 10° ENE 05:35:05 14° E 05:37:32 10° ESE visible
12 Dec 3.7 18:22:36 10° S 18:27:34 56° W 18:32:33 10° NNW visible
13 Dec 3.8 06:32:45 10° NNE 06:37:45 56° E 06:42:43 10° S visible
13 Dec 2.9 17:45:48 10° SSE 17:50:48 64° ENE 17:55:51 10° N visible
13 Dec 6.0 19:27:49 10° WSW 19:30:14 13° W 19:32:41 10° WNW visible
14 Dec 5.5 05:56:41 10° NE 06:00:49 25° E 06:04:54 10° SSE visible
14 Dec 3.8 17:09:57 10° SE 17:14:15 29° ENE 17:18:34 10° N visible
14 Dec 4.8 18:48:42 10° SSW 18:53:09 31° W 18:57:38 10° NW visible
15 Dec 6.5 05:23:11 10° E 05:23:40 10° E 05:24:09 10° E visible
15 Dec 3.2 18:11:13 10° S 18:16:16 72° WSW 18:21:21 10° NNW visible
16 Dec 4.4 06:21:35 10° NNE 06:26:27 44° E 06:31:15 10° S visible
16 Dec 3.1 17:34:41 10° SSE 17:39:34 50° ENE 17:44:28 10° N visible
16 Dec 5.7 19:15:33 10° SW 19:18:50 17° W 19:22:10 10° NW visible
17 Dec 5.8 05:45:50 10° NE 05:49:27 19° E 05:53:02 10° SE visible
17 Dec 4.4 18:37:06 10° SSW 18:41:49 39° W 18:46:34 10° NNW visible
18 Dec 3.2 06:46:52 10° NNE 06:51:58 80° ESE 06:57:03 10° S visible
18 Dec 3.0 17:59:55 10° SSE 18:04:59 89° E 18:10:05 10° NNW visible
19 Dec 4.9 06:10:30 10° NNE 06:15:07 34° E 06:19:42 10° SSE visible
19 Dec 3.4 17:23:39 10° SE 17:28:21 39° ENE 17:33:03 10° N visible
19 Dec 5.4 19:03:34 10° SW 19:07:28 22° W 19:11:23 10° NW visible
20 Dec 6.0 05:35:11 10° ENE 05:38:03 15° E 05:40:54 10° SE visible
20 Dec 3.9 18:25:35 10° S 18:30:30 50° W 18:35:27 10° NNW visible
